Contact Us:
Email: info@sawbill.com
Phone: (218)663-7150
Fax: (218)663-7980
Mail: 4620 Sawbill Trail
Box 2129
Tofte, MN 55615


Powered by
Movable Type 3.15
 
Sawbill Weather History
Check out the 7 Day Weather Forecast for the Superior National Forest.
Date High
Temperature
Low
Temperature
Barometric
Pressure
Relative
Humidity 7AM
9 AM
Temperature
Moisture Snow
7/27/15 88 61 30.06 82% 65 0
7/26/15 85 64 30.02 77% 67 0
7/25/15 81 61 30.00 84% 64 0
7/24/15 79 60 30.00 86% 61 .11"
7/23/15 80 55 29.94 90% 62 .32"
7/22/15 75 48 30.00 72% 55 0
7/21/15 71 48 30.00 67% 48 0
7/20/15 70 55 29.92 83% 56 Trace
7/19/15 76 59 29.78 73% 62 0
7/18/15 80 58 29.86 73% 59 0
7/17/15 75 60 29.84 83% 60 0
7/16/15 75 58 29.82 92% 63 .04"
7/15/15 67 53 29.98 72% 58 0
7/14/15 70 52 30.02 75% 53 0
7/13/15 68 62 29.86 82% 62 .41"
7/12/15 74 61 29.78 93% 63 .42"
7/11/15 80 60 30.04 78% 61 0
7/10/15 81 50 30.10 81% 69 0
7/9/15 76 55 30.06 85% 61 0
7/8/15 71 45 30.02 76% 50 0
7/7/15 68 44 30.10 74% 45 0
7/6/15 62 51 30.10 77% 52 0
7/5/15 78 56 29.96 98% 60 .65"
7/4/15 73 52 30.00 86% 57 0
7/3/15 78 43 29.98 97% 52 0
7/2/15 72 47 29.98 83% 61 .04"
7/1/15 68 43 30.06 74% 47 0
6/30/15 66 42 30.04 75% 43 0
6/29/15 68 50 30.02 71% 50 .22"
6/28/15 71 56 29.92 87% 57 Trace
6/27/15 76 52 29.96 80% 61 .02"
6/26/15 75 50 30.10 76% 52 0
6/25/15 74 49 30.12 98% 50 .42"
6/24/15 70 56 30.10 90% 56 .28"
6/23/15 73 49 30.10 98% 57 .24"
6/22/15 64 52 30.04 90% 59 .68"
6/21/15 71 51 29.90 84% 52 0
6/20/15 58 54 29.98 98% 56 1.19"
6/19/15 67 51 29.92 87% 54 .04"
6/18/15 65 42 30.12 66% 51 0
6/17/15 69 50 30.10 58% 53 0
6/16/15 67 47 30.10 68% 50 0
6/15/15 70 46 30.18 68% 47 0
6/14/15 76 53 30.02 82% 56 Trace
6/13/15 72 50 30.00 88% 53 0
6/12/15 74 47 30.06 71% 49 0
6/11/15 73 46 29.97 72% 48 0
6/10/15 67 47 30.02 76% 48 0
6/9/15 77 53 29.84 73% 56 .04"
6/8/15 67 53 29.88 92% 53 .25"
6/7/15 66 55 29.82 98% 57 Trace
6/6/15 68 51 29.78 98% 55 .84"
6/5/15 66 37 30.22 75% 39 0
6/4/15 60 46 30.22 93% 49 .19"
6/3/15 67 54 30.04 98% 57 .96"
6/2/15 65 51 30.00 98% 54 .78"
6/1/15 63 36 30.12 45% 53 0
5/31/15 54 30 30.27 56% 35 0
5/30/15 54 31 30.32 69% 32 0
5/29/15 59 39 30.18 78% 39 .21"
5/28/15 64 46 30.00 82% 52 0
5/27/15 76 45 30.12 70% 46 .12"
5/26/15 72 51 30.02 87% 51 0
5/25/15 58 52 30.00 91% 53 .66"
5/24/15 74 52 30.30 74% 52 .09"
5/23/15 75 52 30.16 53% 55 0
5/22/15 65 34 30.18 44% 52 0
5/21/15 60 33 30.18 61% 34 0
5/20/15 62 38 30.02 49% 45 0
5/19/15 51 31 30.16 62% 38 0
5/18/15 46 30 30.18 73% 31 .22"
5/17/15 62 44 29.86 83% 44 .23"
5/16/15 65 39 29.98 92% 55 .06"
5/15/15 53 39 30.04 80% 39 0
5/14/15 55 42 30.02 91% 43 .21"
5/13/15 51 32 30.26 57% 42 0
5/12/15 41 29 30.36 85% 32 .03"
5/11/15 42 33 30.00 98% 33 .29" .25"
5/10/15 53 37 29.98 98% 37 .79"
5/9/15 48 34 30.29 62% 37 0
5/8/15 52 41 30.18 63% 42 0
5/7/15 69 44 29.96 82% 44 .22"
5/6/15 62 40 30.00 89% 56 0
5/5/15 65 34 30.16 57% 41 0
5/4/15 64 30 29.92 63% 43 0
5/3/15 71 42 30.10 65% 45 Trace
5/2/15 69 40 29.80 83% 49 .04"
5/1/15 62 37 30.02 73% 40 0
4/29/15 56 30 30.12 74% 35 0
4/28/15 60 34 30.14 69% 37 0
4/27/15 60 34 30.16 64% 38 0
4/26/15 55 26 30.20 63% 38 0
4/25/15 49 26 30.17 42% 40 0
4/24/15 41 26 30.09 32% 37 0
4/23/15 38 21 30.08 65% 26 0
4/22/15 31 17 29.92 83% 20 0
4/21/15 31 21 29.78 86% 22 .35" 4"
4/20/15 34 28 29.62 76% 28 .1" 1"
4/19/15 40 32 29.64 95% 32 .49" .5"
4/18/15 52 35 29.94 86% 35 .35"
4/17/15 64 33 30.22 60% 38 0
4/16/15 59 32 30.14 74% 35 0
4/15/15 63 34 30.12 51% 42 0
4/14/15 57 32 30.24 51% 36 0
4/13/15 51 32 30.14 40% 36 Trace Trace
4/12/15 66 36 29.92 74% 42 .35"
4/11/15 58 37 29.92 46% 53 Trace
4/10/15 39 25 30.10 61% 34 0
4/9/15 37 29 29.92 76% 32 Trace
4/8/15 34 29 30.00 73% 33 Trace Trace
4/7/15 37 27 30.16 75% 29 .14" 1.5"
4/6/15 37 20 30.30 41% 20 0
4/5/15 33 18 30.14 45% 21 0
4/4/15 32 10 30.10 45% 18 0
4/3/15 29 16 30.08 45% 24 0
4/2/15 53 16 30.08 50% 16 Trace Trace
4/1/15 42 28 29.76 38% 38 0
3/31/15 38 29 29.92 58% 29 Trace Trace
3/30/15 44 28 29.94 79% 31 Trace Trace
3/29/15 35 28 29.98 72% 28 .35" 2"
3/28/15 36 20 29.76 68% 30 Trace Trace
3/27/15 27 0 30.18 53% 20 0
3/26/15 22 -2 30.20 45% 12 0
3/25/15 35 12 30.06 62% 12 .26" 2"
3/24/15 38 18 29.86 74% 29 Trace Trace
3/23/15 32 12 30.18 69% 18 0
3/22/15 30 12 30.26 64% 18 0
3/21/15 22 9 30.28 46% 12 0
3/20/15 38 9 30.16 41% 9 0
3/19/15 37 23 30.00 64% 33 Trace Trace
3/18/15 35 16 30.14 58% 23 0
3/17/15 32 18 30.22 35% 19 0
3/16/15 40 20 30.22 43% 20 Trace
3/15/15 54 35 30.08 54% 40 0
3/14/15 42 29 30.00 77% 35 0
3/13/15 40 29 29.89 93% 33 .02" 0
3/12/15 48 28 30.06 54% 36 0
3/11/15 45 26 30.02 63% 29 0
3/10/15 51 27 30.00 88% 27 0
3/9/15 40 21 29.86 69% 36 0
 


Home I Trip Planning I Rentals and Outfitting I Reservations I Campgrounds I Sawbill Store I Sawbill News I Contact

© 1997 - 2015, Sawbill Canoe Outfitters, Inc. I Privacy Policy